Overview Statistics Trail Chart Weather Telemetry Raw packets
 

This is the latest recevied weather packets stored in our database for station/object HB9FHL-13. If no packets are shown the sender has not sent any weather packets the latest 10 day(s).

<< 41 42 43 44 45 46 47 >>
Time Temp. Humidity Pressure Rain* Wind** Luminosity Snow
1788439356 23.89° C - 1028.1 hPa 0 mm - - -
1788439056 22.22° C - 1021.4 hPa 0 mm - - -
1788438756 22.78° C - 1020.8 hPa 0 mm - - -
1788438154 23.33° C - 1025.9 hPa 0 mm - - -
1788437854 23.33° C - 1023.3 hPa 0 mm - - -
1788437553 23.33° C - 1026.9 hPa 0 mm - - -
1788437253 22.78° C - 1024.7 hPa 0 mm - - -
1788436953 23.33° C - 1029.3 hPa 0 mm - - -
1788436654 23.33° C - 1029.4 hPa 0 mm - - -
1788436351 22.78° C - 1029.2 hPa 0 mm - - -
1788436051 22.22° C - 1021.6 hPa 0 mm - - -
1788435750 22.78° C - 1020.8 hPa 0 mm - - -
1788435450 22.22° C - 1023 hPa 0 mm - - -
1788435149 22.78° C - 1023.8 hPa 0 mm - - -
1788434854 23.33° C - 1024.4 hPa 0 mm - - -
1788434547 22.22° C - 1025.7 hPa 0 mm - - -
1788434246 21.67° C - 1024.4 hPa 0 mm - - -
1788433946 21.67° C - 1021.8 hPa 0 mm - - -
1788433645 21.67° C - 1025.4 hPa 0 mm - - -
1788433345 22.22° C - 1021.6 hPa 0 mm - - -
1788433047 21.67° C - 1027.6 hPa 0 mm - - -
1788432798 22.22° C - 1028 hPa 0 mm - - -
1788432744 22.22° C - 1028 hPa 0 mm - - -
1788432443 21.67° C - 1024.6 hPa 0 mm - - -
1788432143 22.78° C - 1026.6 hPa 0 mm - - -

* Rain since midnight (hover to see other rain measurements)
** Current wind speed in m/s (hover to see current wind gust speed)